Weather History for Nan, Thailand

Change the Weather History Date:

Friday, February 14, 2014

  Actual Average Record
Temperature  
Mean Temperature 76 °F -  
Max Temperature 91 °F 93 °F - ()
Min Temperature 61 °F 62 °F - ()
Cooling Degree Days 11    
Growing Degree Days 26 (Base 50)    
Moisture  
Dew Point 61 °F    
Average Humidity 55    
Maximum Humidity 94    
Minimum Humidity 33    
Precipitation  
Precipitation 0.00 in 0.03 in - ()
Sea Level Pressure  
Sea Level Pressure 29.89 in    
Wind  
Wind Speed 2 mph ()    
Max Wind Speed 9 mph    
Max Gust Speed -    
Visibility 5.1 miles    
Events      
T = Trace of Precipitation, MM = Missing Value Source: Averaged Metar Reports

Daily Weather History Graph

Daily Weather History Graph

Search for Another Location

Airport:

Trip Planner

Search our weather history database for the weather conditions in past years. The results will help you decide how hot, cold, wet, or windy it might be!

Date:

Astronomy

Feb. 14, 2014 Rise Set
Actual Time 6:45 AM ICT 6:16 PM ICT
Civil Twilight 6:23 AM ICT 6:39 PM ICT
Nautical Twilight 5:57 AM ICT 7:04 PM ICT
Astronomical Twilight 5:31 AM ICT 7:30 PM ICT
Moon 5:47 PM ICT (2/14) 5:56 AM ICT (2/14)
Length of Visible Light 12h 15m
Length of Day
11h 31m
Waxing Gibbous, 99% of the Moon is Illuminated
Feb 14
Waxing Gibbous
Feb 15
Full
Feb 23
Last Quarter
Mar 1
New
Mar 8
First Quarter

Hourly Weather History & Observations

Time (ICT) Temp. Heat Index Dew Point Humidity Pressure Visibility Wind Dir Wind Speed Gust Speed Precip Events Conditions
1:00 AM 67 °F - 61 °F 76% 29.91 in 6 mi Calm Calm - -  
4:00 AM 63 °F - 62 °F 93% 29.92 in 5 mi Calm Calm - -   Mist
7:00 AM 63 °F - 61 °F 89% 29.97 in 2 mi Calm Calm - -   Mist
8:00 AM 64.4 °F - 62.6 °F 94% 29.98 in 2.5 mi North 3.5 mph - N/A   Overcast
9:00 AM 69.8 °F - 62.6 °F 78% 29.98 in 3.7 mi North 3.5 mph - N/A   Partly Cloudy
10:00 AM 77 °F - 64 °F 57% 29.99 in 4 mi Calm Calm - -   Mist
10:00 AM 78.8 °F - 59.0 °F 51% 29.98 in 3.7 mi WSW 4.6 mph - N/A   Partly Cloudy
11:00 AM 80.6 °F 81.1 °F 59.0 °F 48% 29.98 in 3.7 mi SW 3.5 mph - N/A   Partly Cloudy
12:00 PM 80.6 °F 81.1 °F 59.0 °F 48% 29.95 in 4.3 mi SSW 6.9 mph - N/A   Scattered Clouds
1:00 PM 87 °F - 66 °F 40% 29.88 in 6 mi Calm Calm - -   Scattered Clouds
1:00 PM 86.0 °F 85.4 °F 59.0 °F 40% 29.89 in 5.0 mi South 8.1 mph - N/A   Scattered Clouds
2:00 PM 87.8 °F 87.1 °F 59.0 °F 38% 29.86 in 6.2 mi SSE 6.9 mph - N/A   Scattered Clouds
3:00 PM 87.8 °F 86.5 °F 57.2 °F 35% 29.83 in 6.2 mi SSE 6.9 mph - N/A   Scattered Clouds
4:00 PM 90 °F - 65 °F 33% 29.77 in 6 mi SE 1.2 mph - -   Scattered Clouds
4:00 PM 89.6 °F 88.1 °F 57.2 °F 33% 29.80 in 6.2 mi South 9.2 mph - N/A   Scattered Clouds
5:00 PM 89.6 °F 88.1 °F 57.2 °F 33% 29.77 in 6.2 mi SSE 4.6 mph - N/A   Scattered Clouds
7:00 PM 82 °F - 66 °F 48% 29.80 in 6 mi Calm Calm - -   Clear
7:00 PM 78.8 °F - 53.6 °F 42% 29.80 in 6.2 mi SSE 3.5 mph - N/A   Partly Cloudy
8:00 PM 73.4 °F - 57.2 °F 57% 29.83 in 6.2 mi South 1.2 mph - N/A   Partly Cloudy
10:00 PM 75 °F - 64 °F 61% 29.87 in 6 mi Calm Calm - -